Retour au catalogue

PEGASUS DEB

ActifPO
NORAD 24151·DEBRIS·🇺🇸 United States

Lancé May 19, 1994 depuis Vandenberg Space Force Base

Loading…

Prochains Passages (prochaines 24 heures)

TLE

FraisSource: Space-Track

Époque: Sep 14, 2026, 12:35 UTC

1 24151U 94029HA  26257.52448806  .00000887  00000-0  14040-3 0  9991
2 24151  82.0147 102.8197 0150034 123.8980 237.6599 14.63804141605979

Suivez PEGASUS DEB en temps réel avec AllMySat

Download on the App Store